Location: Schommer Observatory
(40.5200°N, 74.4500°W)
Time: 09:43:28
(UTC-04:00)

Vanguard 2 - Visible Passes

Search period start: 23 October 2017 00:00
Search period end: 02 November 2017 00:00
Orbit: 553 x 2939 km, 32.9° (Epoch: 22 October)

Date Brightness Start Highest point End Pass type
(mag) Time Alt. Az. Time Alt. Az. Time Alt. Az.
23 Oct 11.7 05:27:47 10° S 05:40:06 24° SE 05:50:45 10° E visible
24 Oct 11.5 05:43:58 10° SSW 05:58:04 30° SSE 06:09:56 10° E visible
25 Oct 11.9 03:57:23 10° SSE 04:05:32 15° SE 04:13:25 10° ESE visible
25 Oct 11.3 06:00:43 10° SSW 06:16:03 37° SSE 06:28:41 10° E visible
26 Oct 11.7 04:11:55 10° S 04:23:18 21° SE 04:34:11 10° E visible
26 Oct 11.1 06:17:53 10° SW 06:34:06 44° SSE 06:47:10 10° E visible
27 Oct 11.5 04:27:44 10° SSW 04:41:06 28° SE 04:53:45 10° E visible
27 Oct 10.9 06:35:22 10° SW 06:52:11 51° SSE 07:05:31 10° E visible
28 Oct 11.8 02:44:40 10° SE 02:48:59 11° SE 02:53:22 10° ESE visible
28 Oct 11.3 04:44:14 10° SSW 04:58:56 34° SSE 05:12:44 10° E visible
28 Oct 10.8 06:53:06 10° SW 07:10:19 56° SSE 07:23:46 10° E visible
29 Oct 11.6 02:59:12 13° SSE 03:06:34 17° SE 03:16:10 10° E visible
29 Oct 11.1 05:01:12 10° SSW 05:16:50 41° SSE 05:31:24 10° E visible
30 Oct 11.4 03:17:03 18° SSE 03:24:09 24° SE 03:36:24 10° E visible
30 Oct 10.9 05:18:32 10° SW 05:34:48 48° SSE 05:49:52 10° E visible
31 Oct 11.2 03:34:47 23° S 03:41:48 30° SE 03:55:44 10° E visible
31 Oct 10.8 05:36:16 10° SW 05:52:52 54° SSE 06:08:13 10° E visible
01 Nov 11.7 01:50:56 12° SE 01:50:56 12° SE 01:55:51 10° ESE visible
01 Nov 11.0 03:52:24 28° S 03:59:31 37° SE 04:14:38 10° E visible
01 Nov 10.7 05:53:54 10° WSW 06:10:59 60° SSE 06:26:28 10° E visible
